Погода Нерчинский Завод

Погода Нерчинский Завод : погода сейчас, прогноз погоды и архив. Всё, что Вы хотите узнать о погоде Нерчинский Завод!

Хотите узнать прогноз погоды Нерчинский Завод? Тогда Вам сюда: Погода Нерчинский Завод

Поиск расширенной информации на нашем сайте:

Другие новости

Новости СМИ2

Главная страница сайта

Новости сайта

03.07.2017

Напоминаем, что на нашем специализированном сайте Метеоцентр.Азия вы можете получить высокодетализированные автоматические прогнозы погоды по пунктам России, СНГ и мира в авиационном формате (включающие направление и скорость ветра, видимость, явления погоды, количество и форму облачности, нижнюю и верхнюю границу облачности).


Погода Нерчинский Завод - сегодня

Время (UTC), дата Ветер
(°,м/с) 
Видим.   Явления Облачность Т
(°С)
Тd
(°С)
f(%) Тe
(°С)
Pmin
(гПа)
dP
(гПа)
Po
(мм)
O2
(г/м3)
Тmin Tmax R s Состояние
почвы
18 18.01.18 тихо ()   н/о  слаб. снег  10/0 средняя 
[As op]
-25.8 -28.7 77 -26  1018.1  -0.6  701  314           
21 18.01.18 150 (ЮВ) н/о  слаб. снег  10/0 средняя 
[As op]
-25.6 -28.7 75 -26  1017.4  -0.6  701  313           
00 19.01.18 тихо ()   20000 м  {снег}  3/0 верхняя 
[Ci sp]
-28.1 -31.1 75 -28  1018.8  0.5  701  317  -28.3    0.4  11  равномерный
сухой снег
100% 
03 19.01.18 080 (В) 20000 м    3/0 верхняя 
[Cc]
-24 -28.2 68 -27  1018  0.6  702  312  -29         
06 19.01.18 280 (З) 20000 м    8/0 верхняя 
[Ci sp]
-20.7 -31.2 38 -25  1016.7  -0.2  702  308           
09 19.01.18 290 (З) 20000 м    10/0 средняя 
[Ac As]
-23.4 -30.5 52 -26  1019.8  703  312           
12 19.01.18 290 (З) н/о    3/0 верхняя 
[Ci sp]
-26.1 -30.7 65 -27  1022.1  1.2  704  315    -20       
15 19.01.18 130 (ЮВ) н/о    ясно 
-28.1 -31.6 72 -29  1023.4  0.6  705  318           
18 19.01.18 290 (З) н/о    ясно 
-29.5 -33.2 70 -33  1025.2  1.3  706  321           
21 19.01.18 300 (СЗ) н/о    ясно 
-28.5 -32.8 66 -32  1026.5  1.4  707  320           
00 20.01.18 290 (З) 20000 м    3/0 верхняя 
[Ci fib]
-28.7 -33.1 66 -29  1028.9  2.2  708  321  -29.9         
03 20.01.18 350 (С) 20000 м    10/0 верхняя 
[Ci fib]
-25.1 -31.7 54 -28  1029.1  1.3  709  316           
06 20.01.18 300 (СЗ) 20000 м    10/0 верхняя 
[Ci fib]
-23 -30.8 49 -28  1028.8  0.4  710  314           
09 20.01.18 130 (ЮВ) 20000 м    3/0 верхняя 
[Ci fib]
-27.4 -32.7 61 -28  1032.2  1.7  711  320           
12 20.01.18 190 (Ю) н/о    3/0 верхняя 
[Ci fib]
-29.3 -33.5 67 -30  1034.2  1.3  712  323    -22.8       
15 20.01.18 тихо ()   н/о    ясно 
-31.7 -35.8 67 -32  1035.6  0.4  712  326           
18 20.01.18 180 (Ю) н/о    ясно 
-32.7 -36.8 67 -34  1035.8  -0.2  712  328           
21 20.01.18 100 (В) н/о    ясно 
-34.5 -38.5 67 -35  1036  -0.2  712  330           
00 21.01.18 тихо ()   20000 м    3/0 верхняя 
[Ci fib]
-37.9 -42.2 64 -38  1037.6  0.3  712  335  -37.9      11  равномерный
сухой снег
100% 
03 21.01.18 тихо ()   4000 м  дым  ясно 
-32.6 -36.6 68 -33  1035.5  0.1  712  328  -38.1         
06 21.01.18 100 (В) 20000 м    3/0 верхняя 
[Ci sp]
-28.9 -34.5 59 -30  1031.9  -2.1  710  322           
09 21.01.18 тихо ()   20000 м    ясно 
-30 -34.6 64 -30  1031.9  -0.3  710  323           
12 21.01.18 тихо ()   н/о    ясно 
-29.7 -36 54 -30  1031.9  0.1  710  323    -27       
15 21.01.18 тихо ()   н/о    ясно 
-31.5 -37.4 56 -32  1031.8  -0.7  710  325           
18 21.01.18 тихо ()   н/о    ясно 
-32.2 -37.5 59 -32  1031  -0.9  709  326           
Время (UTC), дата Ветер
(°,м/с) 
Видим.   Явления Облачность Т
(°С)
Тd
(°С)
f(%) Тe
(°С)
Pmin
(гПа)
dP
(гПа)
Po
(мм)
O2
(г/м3)
Тmin Tmax R s Состояние
почвы

Для получения пояснительной информации подведите курсор к названию столбца.

ПОГОДА Нерчинский Завод - архив

Всё, что Вы хотите узнать о погоде Нерчинский Завод - удобно и подробно!

Выберите нужную дату (начиная с 1 января 2015* года) и нажмите кнопку "Найти".
Будут отображены архивные сводки погоды по пункту Нерчинский Завод, начиная с указанной даты.


Отображать данные в формате CSV (для использования в таблицах Excel)


Внимание! Наш архив погоды предназначен исключительно для личного некоммерческого использования в познавательных целях. Если Вам необходимы официальные справки о состоянии погоды (для производственных, юридических, коммерческих и т.п. целей), обращайтесь в органы Росгидромета.

*Примечание: данная дата относится к архиву по метеостанциям СССР (Россия, СНГ, Балтия).
Архив по метеостанциям Зарубежной Европы и Азии (кроме Китая) хранится 10 дней, по другим регионам земного шара (Китай, Африка, Америка, Австралия, Океания) - 1 день.

Нерчинский Завод - район местоположения метеостанции


Название, широта, долгота, высота метеостанции:
Нерчинский Завод 51.3°ш. 119.6°д. 619 м над ур. моря [Российская Федерация]

Дополнительная информация

В oтличие oт бoльшинства пoгoдных сайтoв мы публикуем пoдрoбную метеoинфoрмацию в детальнoм прoфессиoнальнoм фoрмате.

Характеристики температуры и влажнoсти вoздуха измеряются на высoте 2 м в тени вдали oт зданий и деревьев.
Скoрoсть ветра измеряется на высoте 10 м (на урoвне рoста челoвека скoрoсть ветра ниже в 1.5-2 раза). Если метеoстанция нахoдится в гoрoде или в лесу, тo скoрoсть ветра занижена на 2-4 м/с пo сравнению с oткрытым местoм. Скoрoсть ветра над акватoриями крупных рек и oзёр, а также на вершинах хoлмoв на 2-5 м/с выше, чем в oбычных услoвиях.
Атмoсфернoе давление в разных тoчках местнoсти мoжет значительнo oтличаться oт давления на метеoстанции, в зависимoсти oт услoвий рельефа (при пoдъёме на 10 м давление пoнижается примернo на 1 мм рт.ст.).